Погода в Переволоках

Россия / Самарская область     52°53′19″N   49°19′06″E
темп.,
°C
ветер,
м/с
пор.,
м/с
влажн.,
%
обл.,
%
осадки,
мм/ч
давл.,
гПа
погр.,
м
12 апреля, пн
пн1201:00+11всв348591 0.0 103050
04:00+11св2282100 0.0 103121
07:00+10св238790 0.0 103244
10:00+14всв346681 0.0 1033310
13:00+17в355974 0.0 1033432
16:00+19всв67539 0.0 1033713
19:00+16всв377167 0.0 1033125
22:00+13в358484 0.0 103365
13 апреля, вт
вт1301:00+11в348740 0.0 103459
04:00+9в34898 0.0 103563
07:00+9вюв368822 0.0 103595
10:00+15вюв465879 0.0 1035476
13:00+19юв464655 0.0 10341014
16:00+20юв56375 0.0 10331162
19:00+16юв33545 0.0 103243
22:00+12юв46638 0.0 103293
14 апреля, ср
ср1401:00+10юв33655 0.0 103140
04:00+8вюв34825 0.0 103161
07:00+8в37935 0.0 1030163
10:00+13вюв56695 0.0 1029533
13:00+17вюв56525 0.0 10281011
16:00+19юв56485 0.0 10261296
19:00+16юв36620 0.0 1024113
22:00+12юв36750 0.0 102499
15 апреля, чт
чт1501:00+11вюв35790 0.0 102376
04:00+9вюв34810 0.0 102350
07:00+8в34800 0.0 102292
10:00+14вюв34590 0.0 1022438
13:00+19юв34440 0.0 10201130
16:00+21ююв44360 0.0 10191809
19:00+18ююв235060 0.0 101824
22:00+14ююв336338 0.0 101838
16 апреля, пт
пт1601:00+12вюв1159100 0.0 101710
04:00+11в2261100 0.0 101610
07:00+11в2264100 0.0 101625
10:00+16всв224799 0.0 1016362
13:00+19ссв333693 0.0 10161159
16:00+20с343893 0.0 10152058
19:00+17с484627 0.0 1015261
22:00+12с511735 0.0 1016281